User: anonymous   Login
Location: Antichan
(42.9728°N, 0.6667°E)
Time: 01:37:53
(UTC+00:00)
Language:

Cosmos 1023 Rocket - Orbit

View from above orbital plane
View from above orbital plane
View from above satellite
View from above satellite

Ground track
Ground track

The orbit data is extracted from the following two-line orbital elements,

1 10962U 78063B   20302.79952207  .00000165  00000-0  59101-4 0  9992
2 10962  74.0777 108.7631 0024404  53.1808 307.1582 14.41209789223005
Epoch (UTC): 28 October 2020 19:11:18
Eccentricity: 0.0024404
inclination: 74.0777°
perigee height: 737 km
apogee height: 772 km
right ascension of ascending node: 108.7631°
argument of perigee: 53.1808°
revolutions per day: 14.41209789
mean anomaly at epoch: 307.1582°
orbit number at epoch: 22300

The dashed part of the orbit path shows where the satellite is in the earth's shadow,  

DLR